x

8777812 - Rincon Del San Jose; Potrero Lopeno Sw, Tx (rsjt2) Weather Station

5:18pm - Wed 23rd Jan 2019 All times are CST. -6 hours from GMT.

  • Wind
    16mph, 20mph gusts
  • Sea Temp 61°f
  • Air Temp 57°f
  • Sea Pressure 1020.6mb
  • 8777812 - Rincon Del San Jose; Potrero Lopeno Sw, Tx
  • 8777812 - Rincon Del San Jose; Potrero Lopeno Sw, Tx

More Historic Weather Station data

Upgrade to MSW Pro to gain access to the past 30 days of data for over 8000 Wavebouys and Weather Stations around the globe.

Join

Comparision Forecast

View Surf forecast
   
Wed 01/23 5:18pm 16 20 mph 1020.6mb 61f 57f
5:12pm 14 17 mph 1020.6mb 61f 57f
5:06pm 16 18 mph 1020.6mb 61f 57f
5:00pm 17 21 mph 1020.6mb 61f 57f
4:54pm 17 18 mph 1020.5mb 61f 57f
4:48pm 14 18 mph 1020.7mb 61f 56f
4:42pm 15 18 mph 1020.6mb 61f 56f
4:36pm 14 18 mph 1020.6mb 61f 56f
4:30pm 16 21 mph 1020.6mb 61f 56f
4:24pm 16 20 mph 1020.9mb 60f 56f
4:18pm 21 23 mph 1020.9mb 61f 56f
4:12pm 20 22 mph 1020.7mb 60f 56f
4:06pm 16 25 mph 1020.7mb 59f 56f
4:00pm 20 22 mph 1020.7mb 59f 56f
3:54pm 20 23 mph 1020.7mb 58f 55f
3:48pm 18 23 mph 1020.8mb - -
3:42pm 17 21 mph 1020.9mb 58f 56f
3:36pm 20 26 mph 1020.9mb 58f 55f
3:30pm 22 28 mph 1020.8mb 58f 55f
3:24pm 22 26 mph 1020.7mb 57f 55f
3:18pm 22 28 mph 1020.7mb 56f 55f
3:12pm 21 24 mph 1020.7mb 56f 55f
3:06pm 22 28 mph 1020.6mb 57f 55f
3:00pm 20 24 mph 1020.6mb 56f 55f
2:12pm 24 28 mph 1021.1mb 56f 55f
2:06pm 23 28 mph 1021.1mb 56f 55f
2:00pm 18 22 mph 1021.3mb 56f 54f
1:54pm 18 25 mph 1021.5mb 56f 53f
1:48pm 22 26 mph 1021.5mb 56f 53f
1:42pm 21 25 mph 1021.7mb 55f 54f
1:36pm 23 26 mph 1021.6mb 56f 53f
1:30pm 17 25 mph 1021.9mb 56f 53f
1:24pm 24 28 mph 1021.9mb 56f 53f
1:18pm 23 29 mph 1022.1mb 56f 53f
1:12pm 22 28 mph 1022mb 55f 53f
1:06pm 23 29 mph 1022.3mb 55f 53f
1:00pm 21 25 mph 1022.4mb 55f 53f
12:54pm 22 28 mph 1022.5mb 55f 52f
12:48pm 25 29 mph 1022.7mb 55f 52f
12:42pm 24 30 mph 1022.8mb 55f 52f
12:36pm 25 29 mph 1022.8mb 56f 52f
12:30pm 22 30 mph 1022.8mb 56f 52f
12:24pm 24 29 mph 1022.9mb 56f 52f
12:18pm 25 32 mph 1022.9mb 55f 51f
12:12pm 26 30 mph 1023mb 55f 51f
12:06pm 25 30 mph 1022.8mb 55f 51f
12:00pm 22 26 mph 1023mb 55f 52f
11:54am 22 29 mph 1023.1mb 55f 52f
11:48am 23 29 mph 1023mb 55f 51f
11:42am 26 30 mph 1023mb 54f 51f
11:36am 26 30 mph 1023mb 54f 51f
11:30am 24 29 mph 1023.1mb 54f 51f
11:24am 23 26 mph 1023.2mb 54f 51f
11:18am 21 29 mph 1023.2mb 54f 50f
11:12am 22 29 mph 1023.2mb 54f 50f
11:06am 22 28 mph 1023.3mb 55f 50f
11:00am 24 31 mph 1023.4mb 54f 50f
10:54am 26 32 mph 1023.3mb 54f 49f
10:48am 24 32 mph 1023.3mb - -
10:42am 24 28 mph 1023.4mb 54f 49f
10:36am 26 33 mph 1023.4mb 54f 49f
10:30am 26 30 mph 1023.4mb 53f 49f
10:24am 25 30 mph 1023.4mb 53f 49f
10:18am 24 29 mph 1023.4mb 53f 48f
10:12am 24 30 mph 1023.5mb 53f 48f
10:06am 26 32 mph 1023.4mb 53f 48f
10:00am 28 30 mph 1023.5mb 53f 48f
9:54am 24 31 mph 1023.5mb 53f 48f
9:48am 24 29 mph 1023.3mb 53f 47f
9:42am 24 28 mph 1023.3mb 52f 47f
9:36am 24 29 mph 1023.3mb 52f 47f
9:30am 22 25 mph 1023.4mb 52f 47f
9:24am 20 24 mph 1023.3mb 52f 47f
9:18am 17 24 mph 1023.3mb - -
9:12am 22 25 mph 1022.9mb 52f 47f
9:06am 23 29 mph 1022.7mb 52f 47f
9:00am 25 31 mph 1022.6mb 52f 47f
8:54am 24 29 mph 1022.4mb 52f 47f
8:48am 26 33 mph 1022.2mb 52f 47f
8:42am 30 33 mph 1021.9mb 52f 47f
8:36am 28 33 mph 1021.9mb 52f 47f
8:30am 30 34 mph 1021.6mb 52f 47f
8:24am 31 37 mph 1021.3mb 52f 47f
8:18am 30 37 mph - - -
8:12am 29 33 mph 1021.2mb 53f 47f
8:06am 26 33 mph 1021.2mb 53f 47f
8:00am 26 31 mph 1020.9mb 53f 47f
7:54am 28 33 mph 1021mb 53f 47f
7:48am 28 34 mph 1020.9mb 53f 47f
7:42am 28 33 mph 1020.9mb 54f 47f
7:36am 29 34 mph 1020.7mb 54f 47f
7:30am 29 38 mph 1020.6mb 54f 47f
7:24am 31 40 mph 1020.1mb 54f 47f
7:18am 30 33 mph 1019.9mb 54f 47f
7:12am 32 39 mph 1019.8mb 55f 47f
7:06am 31 37 mph 1019.7mb 55f 47f
7:00am 30 34 mph 1019.5mb 55f 47f
6:54am 29 33 mph 1019.5mb 56f 47f
6:48am 29 32 mph 1019.4mb 56f 47f
6:42am 26 33 mph 1019.4mb 56f 47f
6:36am 30 38 mph 1019.2mb 56f 47f
6:30am 31 38 mph 1019mb 57f 47f
6:24am 34 38 mph 1019mb 57f 47f
6:18am 31 38 mph 1019mb 57f 47f
6:12am 37 45 mph 1018.4mb 58f 47f
6:06am 34 40 mph 1018mb 59f 47f
6:00am 37 43 mph 1017.7mb 60f 47f
5:48am 34 43 mph 1017.4mb - -
5:42am 39 49 mph 1017mb 63f 46f
5:36am 39 48 mph 1016.5mb 64f 46f
5:30am 37 41 mph 1016.8mb 64f 47f
5:24am 33 40 mph 1016.6mb 64f 48f
5:18am 32 41 mph 1016.6mb 64f -
5:12am 37 44 mph 1016.2mb 64f 49f
5:06am 36 45 mph 1016.3mb 64f 49f
5:00am 37 41 mph 1015.9mb 64f 49f
4:54am 33 41 mph 1015.7mb 64f 50f
4:48am 30 39 mph 1015.5mb 65f 51f
4:42am 37 45 mph 1015.1mb 65f 51f
4:36am 33 38 mph 1015.1mb 65f 51f
4:30am 32 40 mph 1015mb 65f 52f
4:24am 34 41 mph 1014.8mb 65f 52f
4:18am  -  mph 1014.6mb 65f 52f
4:12am  -  mph 1014.4mb 65f 52f
4:06am  -  mph 1014.3mb 65f 53f
4:00am  -  mph 1013.7mb 65f 52f
3:42am  -  mph 1013.1mb 65f 53f
3:36am  -  mph 1012.3mb 65f 55f
3:30am  -  mph 1012.6mb 65f 57f
3:24am 10 13 mph 1012.2mb 65f 66f
3:18am 7 8 mph 1011.9mb 65f 67f
3:12am 6 6 mph 1011.6mb 65f 67f
3:06am 6 6 mph 1011.5mb 65f 68f
3:00am 6 6 mph 1011.4mb 65f 68f
2:48am 3 5 mph 1011.3mb 65f 68f
2:42am 5 5 mph 1011.3mb 65f 69f
2:36am 3 5 mph 1011.3mb 65f 68f
2:30am 2 2 mph 1011.3mb 65f 68f
2:24am 3 5 mph 1011.2mb 65f 68f
2:18am 3 5 mph 1011mb 65f 68f
2:12am 5 6 mph 1011mb 65f 68f
2:06am 6 8 mph 1010.9mb 65f 68f
2:00am 8 9 mph 1010.8mb 65f 69f
1:54am 6 6 mph 1011.3mb 65f 70f
1:48am 5 5 mph 1011.4mb 65f 70f
1:42am 3 5 mph 1011.4mb 65f 69f
1:36am 3 3 mph 1011.6mb 65f 70f
1:30am 3 3 mph 1011.7mb 65f 70f
1:24am 3 5 mph 1011.7mb 65f 70f
1:18am 5 8 mph 1011.7mb 65f 70f
1:12am 6 8 mph 1011.8mb 65f 70f
1:06am 6 8 mph 1011.7mb 65f 70f
1:00am 6 7 mph 1011.6mb 65f 69f
12:54am 6 7 mph 1011.4mb 65f 70f
12:48am 6 7 mph 1011.4mb 65f 70f
12:42am 6 6 mph 1011.3mb 65f 70f
12:36am 5 5 mph 1011.2mb 65f 69f
12:30am 3 6 mph 1011.2mb 65f 68f
12:24am 3 3 mph 1011.2mb 65f 68f
12:18am 3 3 mph 1011.2mb 65f 68f
12:12am 3 5 mph 1011mb 65f 67f
12:06am 3 6 mph 1010.8mb 65f 68f
12:00am 6 8 mph 1010.5mb 65f 68f
Tue 01/22 11:42pm 14 16 mph 1009.4mb 65f 68f
11:36pm 10 11 mph 1009.8mb 65f 68f
11:30pm 8 10 mph 1010mb 65f 68f
11:24pm 10 11 mph 1010mb 65f 68f
11:18pm 10 13 mph 1009.9mb 65f 68f
11:12pm 11 14 mph 1009.9mb 65f 69f
11:06pm 11 14 mph 1010mb 65f 69f
11:00pm 13 15 mph 1010mb 64f 69f
10:48pm 11 14 mph 1009.9mb 64f 70f
10:42pm 13 15 mph 1009.8mb 64f 70f
10:36pm 11 14 mph 1010mb 64f 71f
10:30pm 11 14 mph 1010.1mb 65f 71f
10:24pm 10 13 mph 1010.2mb 65f 71f
10:18pm 6 10 mph 1010.2mb 65f 69f
10:12pm 2 5 mph 1010mb 65f 68f
10:06pm 3 5 mph 1010mb 65f 68f
10:00pm 3 5 mph 1009.8mb 65f 68f
9:54pm 3 3 mph 1009.6mb 65f 67f
9:48pm 3 6 mph 1009.3mb 65f 68f
9:42pm 6 8 mph 1008.7mb 65f 68f
9:36pm 7 7 mph 1008.5mb 65f 68f
9:30pm 5 6 mph 1008.6mb 65f 67f
9:24pm 6 8 mph 1008.6mb 65f 68f
9:18pm 9 11 mph 1008.4mb 65f 68f
9:12pm 10 13 mph 1008mb 66f 68f
9:06pm 11 15 mph 1007.9mb 66f 68f
9:00pm 14 16 mph 1007.8mb 66f 67f
8:54pm 15 18 mph 1007.8mb 66f 67f
8:48pm 16 18 mph - - -
8:42pm 16 20 mph 1007.7mb 66f 68f
8:36pm 16 20 mph 1007.6mb 66f 68f
8:30pm 17 20 mph 1007.4mb 66f 68f
8:24pm 17 20 mph 1007.5mb 66f 68f
8:18pm 15 18 mph 1007.5mb 66f -
8:12pm 17 21 mph 1007.5mb 66f 69f
8:06pm 18 22 mph 1007.5mb 65f 69f
8:00pm 20 22 mph 1007.4mb 66f 69f
7:54pm 17 20 mph 1007.4mb 66f 69f
7:48pm 16 17 mph 1007.5mb 66f -
7:42pm 15 20 mph 1007.4mb 66f 69f
7:36pm 15 17 mph 1007.2mb 66f 69f
7:30pm 14 17 mph 1007.4mb 66f 69f
7:24pm 15 18 mph 1007.4mb 66f 69f
7:18pm 15 18 mph 1007.1mb 66f 68f
7:12pm 14 17 mph 1006.9mb 66f 68f
7:06pm 16 20 mph 1006.7mb 66f 68f
7:00pm 16 21 mph 1006.6mb 66f 68f
6:54pm 18 21 mph 1006.3mb 66f 69f
6:48pm 17 22 mph - - -
6:42pm 21 24 mph 1006.2mb 66f 69f
6:36pm 20 24 mph 1006.2mb 66f 69f
6:30pm 21 23 mph 1006mb 66f 69f
6:24pm 20 25 mph 1006.1mb 66f 69f
6:18pm 22 28 mph 1006mb - -
6:12pm 22 28 mph 1006mb 66f 70f
6:06pm 21 23 mph 1006mb 66f 69f
6:00pm 23 26 mph 1005.9mb 66f 70f
5:54pm 20 26 mph 1005.9mb 66f 69f
5:48pm 24 29 mph 1005.8mb 66f 70f
5:42pm 20 26 mph 1005.8mb 66f 69f
5:36pm 25 29 mph 1005.6mb 66f 69f
5:30pm 23 26 mph 1005.6mb 66f 69f
5:24pm 24 29 mph 1005.7mb 66f 70f
5:18pm 24 29 mph 1005.6mb 66f 70f
5:12pm 25 30 mph 1005.4mb 66f 70f
5:06pm 25 31 mph 1005.3mb 66f 70f
5:00pm 25 34 mph 1005.2mb 66f 70f
4:54pm 26 32 mph 1005.1mb 66f 70f
4:48pm 26 31 mph 1005.2mb 66f 70f
4:42pm 28 34 mph 1005mb 66f 71f
4:36pm 30 38 mph 1005mb 66f 71f
4:30pm 26 30 mph 1005.3mb 66f 69f
4:24pm 29 32 mph 1005.4mb 66f 70f
4:18pm 28 31 mph 1005.3mb 66f 70f
4:12pm 30 36 mph 1004.9mb 66f 70f
4:06pm 30 34 mph 1004.9mb 66f 70f
4:00pm 29 37 mph 1005mb 66f 70f
3:54pm 29 33 mph 1005mb 66f 70f
3:48pm 30 37 mph 1005.1mb 66f 70f
3:42pm 30 37 mph 1005.1mb 66f 70f
3:36pm 32 36 mph 1005mb 66f 71f
3:30pm 30 34 mph 1005.2mb 66f 70f
3:24pm 30 37 mph 1005.3mb 66f 71f
3:18pm 30 37 mph 1005.4mb 66f 71f
3:12pm 33 37 mph 1005.4mb 66f 71f
3:06pm 31 36 mph 1005.7mb 65f 71f
3:00pm 30 34 mph 1005.8mb 65f 71f
2:54pm 29 37 mph 1005.7mb 65f 70f
2:48pm 31 38 mph 1005.8mb 65f 70f
2:42pm 31 34 mph 1005.9mb 65f 71f
2:36pm 29 36 mph 1006mb 65f 70f
2:30pm 30 37 mph 1006.1mb 65f 70f
2:24pm 29 33 mph 1006.2mb 65f 70f
2:18pm 31 36 mph 1006.1mb 65f 70f
2:12pm 31 37 mph 1006.2mb 65f 70f
2:06pm 28 34 mph 1006.5mb 65f 70f
2:00pm 29 34 mph 1006.4mb 65f 70f
1:54pm 29 36 mph 1006.5mb 65f 70f
1:48pm 26 31 mph 1006.8mb 65f 70f
1:42pm 25 31 mph 1007mb 65f 69f
1:36pm 26 33 mph 1007.2mb 65f 70f
1:30pm 31 36 mph 1007.2mb 65f 70f
1:24pm 29 34 mph 1007.4mb 64f 70f
1:12pm 25 32 mph 1007.9mb 64f 69f
1:06pm 23 29 mph 1008mb 64f 69f
1:00pm 26 32 mph 1008.2mb 64f 69f
12:54pm 24 30 mph 1008.1mb 64f 69f
12:48pm 26 34 mph 1008.3mb 64f 69f
12:42pm 28 36 mph 1008.5mb 64f 69f
12:36pm 26 29 mph 1008.7mb 64f 69f
12:30pm 29 32 mph 1008.7mb 64f 69f
12:24pm 25 37 mph 1008.8mb 64f 69f
12:18pm 28 32 mph 1009mb - -
12:12pm 29 34 mph 1009.1mb 64f 69f
12:06pm 25 29 mph 1009.4mb 64f 69f
12:00pm 25 30 mph 1009.5mb 64f 69f
11:54am 24 31 mph 1009.5mb 64f 68f
11:48am 26 32 mph 1009.3mb 64f -
11:42am 25 31 mph 1009.3mb 63f 68f
11:36am 26 29 mph 1009.4mb 63f 68f
11:30am 25 31 mph 1009.6mb 63f 68f
11:24am 26 31 mph 1009.6mb 63f 68f
11:18am 28 33 mph 1009.8mb 63f 68f
11:12am 26 31 mph 1010mb 63f 68f
11:06am 25 30 mph 1010.1mb 63f 68f
11:00am 28 33 mph 1010mb 62f 69f
10:54am 29 36 mph 1010mb 62f 69f
10:48am 29 37 mph 1010mb 62f 69f
10:42am 32 38 mph 1009.9mb 62f 70f
10:36am 32 40 mph 1010mb 62f 70f
10:30am 32 44 mph 1010.2mb 62f 70f
10:24am 33 44 mph 1010.1mb 62f 70f
10:18am 34 44 mph 1010.3mb 62f 70f
10:12am 33 39 mph 1010.4mb 61f 70f
10:06am 32 39 mph 1010.7mb 61f 69f
10:00am 28 37 mph 1010.9mb 61f 68f
9:54am 30 36 mph 1010.6mb 61f 68f
9:48am 30 36 mph 1010.3mb 61f 68f
9:42am 25 32 mph 1010.3mb 61f 67f
9:36am 29 33 mph 1010.2mb 61f 67f
9:30am 26 32 mph 1010.3mb 61f 67f
9:24am 23 26 mph 1010.4mb 61f 66f
9:18am 21 24 mph 1010.6mb 61f -
9:12am 22 24 mph 1010.6mb 61f 65f
9:06am 21 24 mph 1010.7mb 61f 65f
9:00am 21 22 mph 1010.7mb 61f 65f
8:54am 20 21 mph 1010.9mb 60f 65f
8:48am 20 22 mph 1010.9mb 60f 65f
8:42am 20 22 mph 1010.9mb 60f 65f
8:36am 18 23 mph 1010.9mb 60f 65f
8:30am 22 24 mph 1010.7mb 60f 65f
8:24am 22 28 mph 1010.7mb 60f 65f
8:18am 22 26 mph 1010.7mb - -
8:12am 22 28 mph 1010.6mb 60f 65f
8:06am 22 26 mph 1010.5mb 60f 65f
8:00am 22 25 mph 1010.4mb 60f 65f
7:54am 21 25 mph 1010.4mb 60f 65f
7:48am 21 22 mph 1010.4mb 60f 64f
7:42am 18 22 mph 1010.5mb 60f 64f
7:36am 17 21 mph 1010.7mb 60f 64f
7:30am 20 22 mph 1010.7mb 60f 64f
7:24am 21 23 mph 1010.6mb 60f 64f
7:18am 20 22 mph 1010.5mb 60f -
7:12am 21 23 mph 1010.6mb 60f 64f
7:06am 20 23 mph 1010.5mb 60f 64f
7:00am 21 23 mph 1010.5mb 60f 64f
6:54am 21 24 mph 1010.6mb 60f 64f
6:48am 20 23 mph 1010.6mb 60f 64f
6:42am 20 22 mph 1010.5mb 61f 64f
6:36am 18 23 mph 1010.5mb 61f 63f
6:30am 21 23 mph 1010.4mb 61f 64f
6:24am 20 23 mph 1010.4mb 61f 64f
6:18am 20 24 mph 1010.4mb 61f 63f
6:12am 21 23 mph 1010.5mb 61f 64f
6:06am 21 24 mph 1010.5mb 61f 63f
6:00am 21 24 mph 1010.5mb 61f 63f
5:54am 21 23 mph 1010.4mb 61f 63f
5:48am 21 23 mph 1010.6mb 61f -
5:42am 20 22 mph 1010.6mb 61f 63f
5:36am 21 23 mph 1010.6mb 61f 63f
5:30am 22 26 mph 1010.5mb 60f 63f
5:24am 22 24 mph 1010.4mb 60f 63f
5:18am 23 26 mph 1010.5mb 60f 64f
5:12am 22 25 mph 1010.5mb 60f 63f
5:06am 22 24 mph 1010.7mb 60f 63f
5:00am 21 24 mph 1010.8mb 60f 63f
4:54am 23 25 mph 1010.8mb 60f 63f
4:48am 22 24 mph 1010.9mb 60f 63f
4:42am 21 24 mph 1011.1mb 60f 63f
4:36am 21 24 mph 1011.1mb 60f 63f
4:30am 21 23 mph 1011.2mb 61f 63f
4:24am 20 22 mph 1011.3mb 61f 63f
4:18am 20 23 mph 1011.3mb 61f 63f
4:12am 21 23 mph 1011.4mb 61f 63f
4:06am 20 22 mph 1011.6mb 61f 63f
4:00am 20 22 mph 1011.6mb 61f 63f
3:54am 18 21 mph 1011.8mb 61f 63f
3:48am 18 20 mph 1011.9mb 61f 63f
3:42am 18 21 mph 1012mb 61f 63f
3:36am 18 22 mph 1012mb 61f 63f
3:30am 20 22 mph 1012.1mb 61f 63f
3:24am 20 23 mph 1012.2mb 61f 63f
3:18am 21 23 mph - - -
3:12am 21 25 mph 1012.2mb 61f 63f
3:06am 22 25 mph 1012.2mb 61f 63f
3:00am 21 23 mph 1012.4mb 61f 63f
2:54am 18 22 mph 1012.6mb 60f 63f
2:48am 20 22 mph 1012.7mb 60f 63f
2:42am 20 23 mph 1012.8mb 60f 63f
2:36am 18 23 mph 1012.8mb 60f 63f
2:30am 17 22 mph 1012.8mb 60f 63f
2:24am 20 23 mph 1012.9mb 60f 63f
2:18am 20 23 mph 1013mb 60f 63f
2:12am 18 21 mph 1013mb 60f 63f
2:06am 18 22 mph 1013.2mb 60f 63f
2:00am 20 22 mph 1013.2mb 60f 63f
1:54am 18 21 mph 1013.5mb 60f 63f
1:48am 16 18 mph 1013.8mb 60f 63f
1:42am 15 18 mph 1013.9mb 60f 63f
1:36am 15 17 mph 1013.9mb 60f 63f
1:30am 14 16 mph 1014.1mb 61f 62f
1:24am 14 15 mph 1014.3mb 61f 62f
1:18am 14 16 mph - - -
1:12am 15 18 mph 1014.5mb 61f 62f
1:06am 16 18 mph 1014.4mb 61f 62f
1:00am 15 18 mph 1014.5mb 61f 62f
12:54am 15 18 mph 1014.5mb 61f 62f
12:48am 17 20 mph 1014.5mb 61f 62f
12:42am 17 20 mph 1014.7mb 61f 63f
12:36am 16 18 mph 1014.8mb 61f 62f
12:30am 16 18 mph 1014.8mb 61f 62f
12:24am 16 18 mph 1014.8mb 61f 62f
12:18am 16 18 mph 1014.9mb - -
12:12am 15 20 mph 1015mb 61f 62f
12:06am 17 20 mph 1015.1mb 61f 63f
12:00am 18 21 mph 1015.1mb 61f 63f
Mon 01/21 11:54pm 16 18 mph 1015.1mb 61f 62f
11:48pm 16 21 mph 1015.2mb 61f 62f
11:42pm 17 20 mph 1015.3mb 61f 63f
11:36pm 18 22 mph 1015.4mb 61f 63f
11:30pm 20 23 mph 1015.4mb 61f 63f
11:24pm 21 24 mph 1015.2mb 61f 63f
11:18pm 20 23 mph 1015.1mb 61f 63f
11:12pm 21 24 mph 1015.1mb 61f 63f
11:06pm 20 23 mph 1015.2mb 61f 63f
11:00pm 20 23 mph 1015.2mb 61f 63f
10:54pm 20 24 mph 1015.3mb 61f 62f
10:48pm 20 23 mph 1015.4mb 61f 62f
10:42pm 18 22 mph 1015.4mb 61f 62f
10:36pm 18 21 mph 1015.4mb 61f 62f
10:30pm 17 21 mph 1015.5mb 61f 62f
10:24pm 18 21 mph 1015.6mb 62f 62f
10:18pm 17 18 mph 1015.8mb 62f 62f
10:12pm 17 20 mph 1015.9mb 62f 63f
10:06pm 16 20 mph 1015.8mb 62f 62f
10:00pm 17 21 mph 1015.9mb 62f 62f
9:54pm 17 21 mph 1015.8mb 62f 62f
9:48pm 18 22 mph 1015.8mb 62f 63f
9:42pm 18 22 mph 1015.8mb 62f 63f
9:36pm 17 21 mph 1015.9mb 62f 63f
9:30pm 17 21 mph 1016mb 62f 63f
9:24pm 18 21 mph 1015.9mb 62f 63f
9:18pm 18 22 mph 1015.9mb 62f 63f
9:12pm 18 21 mph 1016mb 62f 63f
9:06pm 18 21 mph 1016mb 62f 63f
9:00pm 17 21 mph 1016.1mb 62f 63f
8:54pm 17 21 mph 1016.1mb 62f 63f
8:48pm 18 22 mph 1016mb 62f 63f
8:42pm 20 21 mph 1016mb 62f 63f
8:36pm 17 21 mph 1016mb 62f 63f
8:30pm 17 21 mph - - -
8:24pm 18 22 mph 1016.1mb 62f 63f
8:18pm 17 21 mph 1016.1mb 62f 63f
8:12pm 17 21 mph 1016.1mb 62f 63f
8:06pm 17 21 mph 1016.1mb 62f 63f
8:00pm 17 21 mph 1016mb 62f 63f
7:54pm 18 22 mph 1015.9mb 62f 63f
7:48pm 18 22 mph 1015.9mb 62f 63f
7:42pm 18 22 mph 1015.9mb 62f 63f
7:36pm 20 22 mph 1015.8mb 62f 63f
7:30pm 20 22 mph 1015.8mb 62f 64f
7:24pm 20 23 mph 1015.8mb 62f 64f
7:18pm 18 22 mph 1015.8mb 62f 64f
7:12pm 18 22 mph 1015.9mb 62f 64f
7:06pm 18 22 mph 1015.9mb 62f 64f
7:00pm 18 21 mph 1015.9mb 62f 64f
6:54pm 17 22 mph 1015.8mb 62f 64f
6:48pm 18 22 mph 1015.8mb 62f 64f
6:42pm 18 22 mph 1015.7mb 62f 64f
6:36pm 18 22 mph 1015.7mb 62f 64f
6:30pm 18 22 mph 1015.7mb 62f 64f
6:24pm 18 23 mph 1015.7mb 62f 64f
6:18pm 18 22 mph 1015.9mb 62f 64f
6:12pm 20 23 mph 1015.9mb 62f 64f
6:06pm 21 23 mph 1015.9mb 62f 64f
6:00pm 20 22 mph 1016mb - -
5:54pm 20 24 mph 1016.1mb 62f 64f
5:48pm 21 24 mph 1016.1mb 62f 65f
5:42pm 18 25 mph 1016.2mb 62f 65f
5:36pm 20 23 mph 1016.3mb 62f 65f
5:30pm 21 24 mph 1016.3mb - -
5:24pm 21 24 mph 1016.3mb 62f 65f
5:18pm 20 24 mph 1016.4mb 62f 65f
5:12pm 22 25 mph 1016.5mb 62f 66f
5:06pm 20 26 mph 1016.4mb 62f 65f
5:00pm 21 26 mph 1016.5mb 61f 66f
4:54pm 22 25 mph 1016.3mb 61f 66f
4:48pm 23 26 mph 1016.4mb 61f 66f
4:42pm 21 24 mph 1016.5mb 61f 66f
4:36pm 22 28 mph 1016.5mb 61f 66f
4:30pm 22 26 mph 1016.5mb 61f 66f
4:24pm 22 26 mph 1016.7mb 61f 66f
4:18pm 22 28 mph 1016.7mb 61f 66f
4:12pm 23 28 mph 1016.7mb 61f 66f
4:06pm 22 26 mph 1016.6mb 61f 66f
4:00pm 23 26 mph 1016.8mb 61f 66f
3:54pm 22 25 mph 1016.8mb 60f 66f
3:48pm 23 26 mph 1017mb 60f -
3:42pm 22 25 mph 1017mb 60f 66f
3:36pm 23 28 mph 1017mb 60f 66f
3:30pm 25 29 mph 1017.2mb 59f 67f
3:24pm 23 28 mph 1017.1mb 59f 66f
3:18pm 22 28 mph 1017.2mb 59f 66f
3:12pm 23 26 mph 1017.3mb 59f 66f
3:06pm 23 28 mph 1017.4mb 59f 66f
3:00pm 22 28 mph 1017.5mb 59f 66f
2:54pm 23 26 mph 1017.4mb 59f 66f
2:48pm 22 26 mph 1017.4mb 59f 66f
2:42pm 22 24 mph 1017.5mb 59f 66f
2:36pm 22 28 mph 1017.6mb 59f 66f
2:30pm 21 25 mph 1017.5mb 59f 66f
2:24pm 22 25 mph 1017.7mb 58f 66f
2:18pm 22 26 mph 1017.8mb 58f 66f
2:12pm 20 25 mph 1017.9mb 58f 66f
2:06pm 21 25 mph 1018mb 58f 66f
2:00pm 23 26 mph 1018.1mb 58f 66f
1:54pm 21 24 mph 1018.1mb 58f 65f
1:48pm 21 25 mph - - -
1:42pm 20 25 mph 1018.4mb 58f 65f
1:36pm 22 24 mph 1018.5mb 58f 65f
1:30pm 20 23 mph 1018.6mb 58f 65f
1:24pm 21 23 mph 1018.8mb 58f 65f
1:18pm 21 25 mph 1018.9mb 59f 65f
1:12pm 22 26 mph 1019.1mb 59f 65f
1:06pm 22 25 mph 1019.2mb 58f 65f
1:00pm 20 26 mph 1019.5mb 58f 65f
12:54pm 18 22 mph 1019.7mb 58f 65f
12:48pm 21 24 mph 1019.9mb 58f 65f
12:42pm 18 22 mph 1020.1mb 58f 65f
12:36pm 18 22 mph 1020.3mb 58f 64f
12:30pm 21 23 mph 1020.4mb 58f 65f
12:24pm 17 22 mph 1020.5mb 58f 64f
12:18pm 18 21 mph 1020.5mb 58f 64f
12:12pm 17 22 mph 1020.7mb 58f 64f
12:06pm 16 18 mph 1020.8mb 58f 63f
12:00pm 15 20 mph 1021mb 58f 63f
11:54am 17 21 mph 1021.1mb 58f 63f
11:48am 15 18 mph 1021.2mb 58f -
11:42am 17 21 mph 1021.2mb 58f 63f
11:36am 16 20 mph 1021.3mb 58f 63f
11:30am 17 18 mph 1021.3mb 58f 63f
11:24am 15 16 mph 1021.4mb 58f 62f
11:18am 15 17 mph 1021.5mb - -
11:12am 14 16 mph 1021.7mb 57f 62f
11:06am 15 17 mph 1021.8mb 57f 62f
11:00am 13 15 mph 1021.9mb 57f 62f
10:54am 14 15 mph 1021.9mb 57f 62f
10:48am 13 15 mph 1022mb 56f 62f
10:42am 13 15 mph 1022.1mb 56f 62f
10:36am 14 17 mph 1022.1mb 56f 61f
10:30am 15 17 mph 1022mb 55f 62f
10:24am 15 17 mph 1022.1mb 55f 62f
10:18am 13 15 mph 1022.1mb - -
10:12am 14 15 mph 1022.1mb 55f 61f
10:06am 14 16 mph 1022.1mb 56f 61f
10:00am 13 15 mph 1022.2mb 56f 61f
9:54am 13 14 mph 1022.2mb 56f 60f
9:48am 11 14 mph 1022.2mb 56f 60f
9:42am 11 14 mph 1022.2mb 56f 60f
9:36am 11 14 mph 1022.1mb 55f 60f
9:30am 10 13 mph 1022.1mb 55f 60f
9:24am 10 11 mph 1022mb 55f 59f
9:18am 9 11 mph 1022mb 55f 59f
9:12am 10 11 mph 1022mb 55f 58f
9:06am 9 10 mph 1021.9mb 55f 58f
9:00am 9 9 mph 1021.8mb 55f 57f
8:54am 8 9 mph 1021.7mb 55f 56f
8:48am 8 9 mph 1021.7mb 55f 56f
8:42am 9 10 mph 1021.6mb 55f 56f
8:36am 8 10 mph 1021.6mb 55f 55f
8:30am 8 10 mph 1021.6mb 55f 55f
8:24am 8 9 mph 1021.7mb 55f 55f
8:18am 8 9 mph 1021.7mb 55f 55f
8:12am 7 8 mph 1021.8mb 55f 55f
8:06am 7 8 mph 1021.9mb 55f 55f
8:00am 8 9 mph 1021.9mb 55f 55f
7:54am 8 9 mph 1021.8mb 55f 55f
7:48am 8 9 mph 1021.8mb 55f 54f
7:42am 8 9 mph 1021.8mb 55f 54f
7:36am 8 9 mph 1021.7mb 55f 54f
7:30am 8 9 mph 1021.6mb 55f 53f
7:24am 7 8 mph 1021.6mb 55f 53f
7:18am 7 8 mph - - -
7:12am 7 8 mph 1021.7mb 55f 53f
7:06am 7 8 mph 1021.7mb 55f 52f
7:00am 7 9 mph 1021.8mb 55f 53f
6:54am 8 9 mph 1021.8mb 55f 54f
6:48am 8 9 mph 1021.8mb - -
6:42am 8 9 mph 1021.7mb 55f 54f
6:36am 7 9 mph 1021.6mb 55f 53f
6:30am 7 9 mph 1021.6mb 55f 53f
6:24am 8 9 mph 1021.6mb 55f 53f
6:18am 8 9 mph 1021.5mb 55f 54f
6:12am 8 9 mph 1021.5mb 55f 54f
6:06am 8 9 mph 1021.5mb 54f 54f
6:00am 8 10 mph 1021.6mb 54f 53f
5:54am 8 9 mph 1021.6mb 54f 53f
5:48am 8 10 mph 1021.6mb 54f -
5:42am 9 11 mph 1021.5mb 54f 54f
5:36am 9 10 mph 1021.5mb 54f 54f
5:30am 9 10 mph 1021.5mb 54f 54f
5:24am 10 11 mph 1021.5mb 54f 54f
5:18am 10 11 mph 1021.5mb 54f 55f
5:12am 10 11 mph 1021.4mb 54f 54f
5:06am 10 11 mph 1021.4mb 54f 54f
5:00am 9 11 mph 1021.4mb 54f 54f
4:54am 10 11 mph 1021.4mb 55f 54f
4:48am 10 11 mph 1021.5mb - -
4:42am 10 13 mph 1021.6mb 54f 54f
4:36am 10 11 mph 1021.7mb 54f 54f
4:30am 10 11 mph 1021.8mb 55f 54f
4:24am 9 11 mph 1021.9mb 55f 54f
4:18am 10 11 mph 1022mb 55f 55f
4:12am 11 13 mph 1022mb 55f 55f
4:06am 10 11 mph 1022.1mb 55f 55f
4:00am 9 11 mph 1022.2mb 55f 55f
3:54am 9 10 mph 1022.3mb 55f 54f
3:48am 8 10 mph 1022.4mb 55f 54f
3:42am 9 11 mph 1022.4mb 55f 55f
3:36am 9 10 mph 1022.4mb 55f 54f
3:30am 9 11 mph 1022.4mb 55f 54f
3:24am 9 10 mph 1022.4mb 55f 54f
3:18am 9 10 mph 1022.4mb 55f -
3:12am 8 9 mph 1022.4mb 55f 53f
3:06am 9 10 mph 1022.5mb 55f 54f
3:00am 9 10 mph 1022.5mb 55f 54f
2:54am 9 10 mph 1022.7mb 55f 54f
2:48am 9 10 mph 1022.9mb 55f 54f
2:42am 9 10 mph 1022.9mb 55f 54f
2:36am 8 10 mph 1023mb 55f 54f
2:30am 8 9 mph 1023.2mb 55f 54f
2:24am 9 10 mph 1023.4mb 55f 54f
2:18am 8 10 mph 1023.5mb 55f 55f
2:12am 8 9 mph 1023.6mb 55f 55f
2:06am 8 9 mph 1023.6mb 55f 54f
2:00am 8 9 mph 1023.7mb 55f 54f
1:54am 8 9 mph 1023.7mb 55f 54f
1:48am 8 9 mph 1023.7mb 55f 54f
1:42am 8 9 mph 1023.8mb 55f 54f
1:36am 8 8 mph 1023.9mb 55f 54f
1:30am 7 8 mph 1023.9mb 55f 54f
1:24am 8 9 mph 1024mb 55f 54f
1:18am 7 8 mph 1024mb 55f 54f
1:12am 7 8 mph 1024mb 55f 54f
1:06am 7 8 mph 1024.1mb 55f 54f
1:00am 7 9 mph 1024.1mb - -
12:54am 8 9 mph 1024.1mb 55f 54f
12:48am 8 9 mph 1024.2mb 55f 54f
12:42am 8 10 mph 1024.2mb 55f 54f
12:36am 8 9 mph 1024.1mb 56f 53f
12:30am 8 8 mph 1024.2mb 56f 53f
12:24am 7 9 mph 1024.2mb 56f 52f
12:18am 7 8 mph 1024.4mb 56f 52f
12:12am 6 7 mph 1024.4mb 56f 51f
12:06am 7 8 mph 1024.6mb 56f 52f
12:00am 6 8 mph 1024.7mb 56f 52f
Sun 01/20 11:54pm 6 8 mph 1024.8mb 56f 51f
11:48pm 7 8 mph - - -
11:42pm 7 9 mph 1024.9mb 56f 51f
11:36pm 8 10 mph 1024.9mb 56f 52f
11:30pm 9 10 mph 1024.9mb 56f 53f
11:24pm 8 10 mph 1025mb 56f 52f
11:18pm 9 11 mph 1025mb 56f 52f
11:12pm 10 11 mph 1025mb 56f 52f
11:06pm 9 11 mph 1025.1mb 56f 52f
11:00pm 9 10 mph 1025.2mb 56f 52f
10:54pm 9 10 mph 1025.2mb 56f 52f
10:48pm 8 9 mph 1025.2mb 56f 52f
10:42pm 8 9 mph 1025.2mb 56f 52f
10:36pm 8 10 mph 1025.1mb 56f 52f
10:30pm 8 9 mph 1025.1mb 56f 52f
10:24pm 7 9 mph 1025.1mb 56f 52f
10:18pm 7 8 mph 1025.1mb 56f -
10:12pm 7 8 mph 1025.1mb 56f 52f
10:06pm 6 8 mph 1025.1mb 56f 51f
10:00pm 7 8 mph 1025.1mb 56f 52f
9:54pm 6 7 mph 1025.2mb 56f 51f
9:48pm 6 7 mph 1025.2mb 56f 51f
9:42pm 6 7 mph 1025.2mb 56f 51f
9:36pm 6 8 mph 1025.3mb 56f 52f
9:30pm 6 7 mph 1025.3mb 56f 52f
9:24pm 6 7 mph 1025.4mb 56f 51f
9:18pm 6 8 mph 1025.3mb 56f 52f
9:12pm 7 8 mph 1025.3mb 56f 52f
9:06pm 8 9 mph 1025.3mb 56f 53f
9:00pm 8 10 mph 1025.2mb 56f 53f
8:54pm 8 10 mph 1025.1mb 56f 53f
8:48pm 9 10 mph 1025.1mb 56f 53f
8:42pm 9 10 mph 1025mb 56f 53f
8:36pm 9 10 mph 1025.1mb 56f 52f
8:30pm 8 9 mph 1025.1mb 56f 52f
8:24pm 7 8 mph 1025.2mb 56f 52f
8:18pm 7 8 mph 1025.3mb 56f 52f
8:12pm 6 8 mph 1025.4mb 56f 52f
8:06pm 7 8 mph 1025.4mb 56f 52f
8:00pm 7 9 mph 1025.4mb 56f 52f
7:54pm 7 9 mph 1025.5mb 56f 52f
7:48pm 7 9 mph 1025.5mb 56f 52f
7:42pm 7 8 mph 1025.5mb 56f 52f
7:36pm 7 9 mph 1025.5mb 57f 52f
7:30pm 8 10 mph 1025.5mb 57f 52f
7:24pm 9 10 mph 1025.4mb 57f 52f
7:18pm 9 10 mph 1025.4mb - -
7:12pm 9 10 mph 1025.3mb 57f 52f
7:06pm 8 10 mph 1025.3mb 57f 52f
7:00pm 9 11 mph 1025.2mb 57f 52f
6:48pm 11 14 mph 1025.2mb 57f 52f
6:42pm 11 14 mph 1025.2mb 57f 52f
6:36pm 10 13 mph 1025.3mb 57f 52f
6:30pm 10 13 mph 1025.4mb 57f 53f
6:24pm 9 13 mph 1025.4mb 57f 53f
6:18pm 10 13 mph - - -
6:12pm 11 14 mph 1025.3mb 57f 53f
6:06pm 9 11 mph 1025.3mb 57f 53f
6:00pm 9 10 mph 1025.4mb 57f 53f
5:54pm 8 9 mph 1025.5mb 57f 53f
5:48pm 8 9 mph - - -
5:42pm 7 9 mph 1025.5mb 57f 54f
5:36pm 8 9 mph 1025.6mb 57f 54f
5:30pm 7 8 mph 1025.6mb 57f 54f
5:24pm 7 8 mph 1025.6mb 57f 54f
5:18pm 8 9 mph 1025.6mb 57f 54f
5:12pm 7 9 mph 1025.6mb 57f 54f
5:06pm 8 10 mph 1025.6mb 57f 54f
5:00pm 7 10 mph 1025.6mb 57f 54f
4:54pm 7 9 mph 1025.6mb 57f 54f
4:48pm 7 9 mph 1025.6mb 57f 55f
4:42pm 7 9 mph 1025.5mb 57f 55f
4:36pm 7 11 mph 1025.6mb 57f 55f
4:30pm 7 10 mph 1025.6mb 57f 55f
4:24pm 7 9 mph 1025.7mb 57f 55f
4:18pm 8 9 mph 1025.7mb - -
4:12pm 8 9 mph 1025.7mb 57f 55f
4:06pm 7 9 mph 1025.8mb 57f 55f
4:00pm 5 9 mph 1025.8mb 57f 55f
3:54pm 7 9 mph 1025.9mb 57f 55f
3:48pm 6 9 mph 1025.8mb 57f -
3:42pm 6 9 mph 1025.9mb 57f 55f
3:36pm 5 9 mph 1025.9mb 57f 55f
3:30pm 6 9 mph 1026mb 57f 55f
3:24pm 8 11 mph 1026mb 57f 55f
3:18pm 7 13 mph 1026.1mb 57f 55f
3:12pm 8 11 mph 1026.2mb 57f 55f
3:06pm 9 14 mph 1026.2mb 57f 54f
3:00pm 9 14 mph 1026.3mb 57f 54f
2:54pm 9 11 mph 1026.5mb 58f 55f
2:48pm 7 13 mph - - -
2:42pm 8 13 mph 1026.6mb 58f 54f
2:36pm 8 13 mph 1026.7mb 58f 54f
2:30pm 10 13 mph 1026.7mb 58f 53f
2:24pm 9 11 mph 1026.9mb 58f 53f
2:18pm 9 13 mph 1027.1mb 58f 53f
2:12pm 10 14 mph 1027.2mb 58f 53f
2:06pm 8 14 mph 1027.2mb 58f 53f
2:00pm 9 13 mph 1027.3mb 58f 53f
1:54pm 10 15 mph 1027.4mb 58f 52f
1:48pm 8 13 mph 1027.6mb - -
1:42pm 10 13 mph 1027.7mb 58f 52f
1:36pm 7 11 mph 1027.9mb 58f 52f
1:30pm 8 14 mph 1027.9mb 58f 52f
1:24pm 9 11 mph 1027.9mb 58f 52f
1:18pm 6 14 mph 1028.1mb 58f 52f
1:12pm 9 11 mph 1028.2mb 59f 52f
1:06pm 11 15 mph 1028.3mb 59f 52f
1:00pm 10 14 mph 1028.3mb 59f 51f
12:54pm 10 15 mph 1028.4mb 59f 51f
12:48pm 9 17 mph 1028.5mb 60f 51f
12:42pm 11 17 mph 1028.6mb 60f 51f
12:36pm 13 18 mph 1028.8mb 60f 51f
12:30pm 10 15 mph 1028.7mb 60f 51f
12:24pm 11 14 mph 1028.8mb 60f 51f
12:18pm 11 16 mph 1028.8mb 60f 51f
12:12pm 13 15 mph 1029mb 60f 51f
12:06pm 11 15 mph 1029mb 60f 51f
12:00pm 10 16 mph 1029mb 60f 51f
11:54am 11 18 mph 1028.9mb 60f 50f
11:48am 13 18 mph 1029.1mb 60f 50f
11:42am 14 17 mph 1029.2mb 60f 50f
11:36am 11 16 mph 1029.3mb 60f 50f
11:30am 11 15 mph 1029.4mb 60f 50f
11:24am 11 17 mph 1029.4mb 60f 50f
11:18am 13 18 mph 1029.4mb 60f 49f
11:12am 14 18 mph 1029.4mb 60f 50f
11:06am 14 20 mph 1029.5mb 60f 49f
11:00am 16 18 mph 1029.5mb 60f 49f
10:54am 14 20 mph 1029.5mb 60f 49f
10:48am 15 20 mph 1029.4mb - -
10:42am 15 20 mph 1029.3mb 60f 48f
10:36am 17 20 mph 1029.3mb 60f 48f
10:30am 16 21 mph 1029.3mb 60f 48f
10:24am 17 21 mph 1029.3mb 60f 48f
10:18am 16 20 mph 1029.4mb 60f 47f
10:12am 17 20 mph 1029.4mb 60f 47f
10:06am 16 18 mph 1029.3mb 60f 47f
10:00am 16 20 mph 1029.3mb 60f 47f
9:54am 16 20 mph 1029.3mb 60f 46f
9:48am 16 20 mph 1029.3mb 60f 47f
9:42am 16 20 mph 1029.2mb 60f 46f
9:36am 18 22 mph 1029mb 60f 46f
9:30am 18 22 mph 1029mb 60f 46f
9:24am 16 23 mph 1028.9mb 60f 46f
9:18am 17 22 mph 1029mb 60f 46f
9:12am 21 23 mph 1029mb 60f 46f
9:06am 16 17 mph 1029mb 59f 46f
9:00am 14 18 mph 1028.9mb 59f 46f
8:54am 16 20 mph 1028.8mb 59f 45f
8:48am 17 20 mph 1028.7mb 59f 45f
8:42am 17 20 mph 1028.7mb 59f 45f
8:36am 16 18 mph 1028.5mb 59f 44f
8:30am 15 18 mph 1028.6mb 59f 44f
8:24am 16 17 mph 1028.6mb 59f 44f
8:18am 16 18 mph 1028.5mb 59f -
8:12am 14 17 mph 1028.6mb 59f 43f
8:06am 15 20 mph 1028.6mb 59f 43f
8:00am 17 21 mph 1028.3mb 59f 44f
7:54am 16 17 mph 1028.1mb 59f 43f
7:48am 15 17 mph 1028.2mb - -
7:42am 16 18 mph 1028.3mb 59f 43f
7:36am 15 17 mph 1028.3mb 59f 44f
7:30am 14 16 mph 1028.3mb 59f 43f
7:24am 14 15 mph 1028.4mb 59f 43f
7:18am 14 17 mph - - -
7:12am 15 17 mph 1028.4mb 59f 43f
7:06am 14 16 mph 1028.3mb 59f 43f
7:00am 14 16 mph 1028.4mb 59f 43f
6:54am 14 16 mph 1028.3mb 59f 44f
6:48am 14 16 mph 1028.5mb 59f 43f
6:42am 13 15 mph 1028.6mb 59f 44f
6:36am 13 15 mph 1028.6mb 59f 44f
6:30am 11 14 mph 1028.7mb 59f 44f
6:24am 13 14 mph 1028.6mb 59f 44f
6:18am 14 15 mph 1028.5mb 59f 44f
6:12am 13 16 mph 1028.6mb 59f 44f
6:06am 14 17 mph 1028.5mb 59f 44f
6:00am 16 18 mph 1028.3mb 59f 44f
5:54am 15 16 mph 1028.3mb 59f 44f
5:48am 15 17 mph 1028.3mb 59f 44f
5:42am 16 18 mph 1028.2mb 59f 44f
5:36am 16 18 mph 1028.1mb 59f 45f
5:30am 16 20 mph 1027.9mb 59f 45f
5:24am 15 17 mph 1028.1mb 59f 45f
5:18am 16 18 mph 1028mb - -
5:12am 16 20 mph 1028.1mb 59f 45f
5:06am 15 17 mph 1028.1mb 59f 45f
5:00am 15 17 mph 1028mb 59f 45f
4:54am 16 18 mph 1027.8mb 59f 46f
4:48am 16 17 mph 1028mb 59f 46f
4:42am 14 15 mph 1028.1mb 59f 46f
4:36am 13 17 mph 1028mb 59f 46f
4:30am 14 16 mph 1027.8mb 59f 46f
4:24am 14 15 mph 1027.8mb 59f 46f
4:18am 14 17 mph - - -
4:12am 15 17 mph 1028mb 59f 47f
4:06am 15 17 mph 1027.9mb 59f 47f
4:00am 14 20 mph 1027.8mb 59f 47f
3:54am 16 20 mph 1027.9mb 59f 47f
3:48am 16 18 mph 1027.9mb 59f -
3:42am 16 18 mph 1027.8mb 59f 48f
3:36am 16 18 mph 1027.8mb 59f 48f
3:30am 15 18 mph 1027.7mb 59f 48f
3:24am 16 21 mph 1027.5mb 59f 48f
3:18am 18 22 mph 1027.3mb 59f 49f
3:12am 18 22 mph 1027.2mb 59f 49f
3:06am 20 24 mph 1027.3mb 60f 49f
3:00am 18 23 mph 1027.3mb 60f 49f
2:54am 20 23 mph 1027.1mb 60f 50f
2:48am 17 23 mph 1027mb 60f 49f
2:42am 17 23 mph 1026.8mb 60f 49f
2:36am 20 24 mph 1026.6mb 60f 49f
2:30am 21 24 mph 1026.6mb 60f 49f
2:24am 21 24 mph 1026.4mb 60f 49f
2:18am 21 25 mph 1026.5mb 60f 50f
2:12am 20 23 mph 1026.7mb 60f 50f
2:06am 17 21 mph 1026.9mb 60f 50f
2:00am 17 21 mph 1026.9mb 60f 50f
1:54am 18 21 mph 1026.8mb 60f 50f
1:48am 17 21 mph 1026.9mb 60f 51f
1:42am 16 20 mph 1026.9mb 60f 51f
1:36am 17 22 mph 1027mb 60f 51f
1:30am 20 22 mph 1026.9mb 60f 51f
1:24am 17 21 mph 1026.9mb 60f 51f
1:18am 16 18 mph 1026.9mb 60f 51f
1:12am 16 18 mph 1026.9mb 60f 51f
1:06am 15 17 mph 1027mb 60f 51f
1:00am 15 18 mph 1026.9mb 60f 51f
12:54am 16 18 mph 1026.7mb 60f 51f
12:48am 14 16 mph 1026.8mb 60f 51f
12:42am 14 15 mph 1026.8mb 60f 52f
12:36am 14 16 mph 1026.7mb 60f 52f